When you browse on this site, cookies collect data to enhance your experience and personalize the content and advertising you see.
Visit our Privacy Policy to learn more. By continuing to use the site, you agree to this use of cookies and data.

Hourly Weather Monteria

Today, 13 July, Monday

Time Temperature Precipitation Wind Pressure Humidity
00:00 +26°C° 0 mm 1 mps 756 mmHg 91%
01:00 +26°C° 0 mm 1 mps 755 mmHg 93%
02:00 +26°C° 2.2 mm 1 mps 755 mmHg 94%
03:00 +26°C° 2.2 mm 1 mps 755 mmHg 95%
04:00 +26°C° 2.2 mm 1 mps 755 mmHg 95%
05:00 +26°C° 0.3 mm 1 mps 755 mmHg 95%
06:00 +26°C° 0.3 mm 1 mps 756 mmHg 95%
07:00 +27°C° 0.3 mm 1 mps 756 mmHg 94%
08:00 +28°C° 0 mm 1 mps 756 mmHg 91%
09:00 +29°C° 0 mm 1 mps 756 mmHg 87%
10:00 +30°C° 0 mm 1 mps 756 mmHg 84%
11:00 +31°C° 0.9 mm 1 mps 755 mmHg 81%
12:00 +31°C° 0.9 mm 1 mps 755 mmHg 79%
13:00 +32°C° 0.9 mm 1 mps 755 mmHg 76%
14:00 +32°C° 0.7 mm 2 mps 754 mmHg 78%
15:00 +32°C° 0.7 mm 2 mps 753 mmHg 80%
16:00 +31°C° 0.7 mm 3 mps 753 mmHg 82%
17:00 +30°C° 0.3 mm 3 mps 753 mmHg 85%
18:00 +29°C° 0.3 mm 3 mps 753 mmHg 88%
19:00 +28°C° 0.3 mm 3 mps 754 mmHg 91%
20:00 +27°C° 0.1 mm 2 mps 754 mmHg 92%
21:00 +27°C° 0.1 mm 2 mps 755 mmHg 92%
22:00 +27°C° 0.1 mm 2 mps 755 mmHg 93%
23:00 +27°C° 0 mm 2 mps 755 mmHg 93%

Tomorrow, 14 July, Tuesday

Time Temperature Precipitation Wind Pressure Humidity
00:00 +27°C° 0 mm 2 mps 755 mmHg 93%
01:00 +26°C° 0 mm 2 mps 755 mmHg 93%
02:00 +26°C° 0.2 mm 2 mps 755 mmHg 93%
03:00 +26°C° 0.2 mm 2 mps 754 mmHg 93%
04:00 +26°C° 0.2 mm 2 mps 754 mmHg 93%
05:00 +26°C° 0.2 mm 2 mps 755 mmHg 93%
06:00 +26°C° 0.2 mm 2 mps 755 mmHg 93%
07:00 +26°C° 0.2 mm 3 mps 756 mmHg 93%
08:00 +27°C° 0 mm 2 mps 756 mmHg 91%
09:00 +27°C° 0 mm 2 mps 756 mmHg 89%
10:00 +28°C° 0 mm 2 mps 756 mmHg 87%
11:00 +29°C° 0 mm 2 mps 755 mmHg 82%
12:00 +30°C° 0 mm 1 mps 755 mmHg 77%
13:00 +31°C° 0 mm 1 mps 754 mmHg 72%
14:00 +31°C° 0 mm 1 mps 754 mmHg 73%
15:00 +31°C° 0 mm 1 mps 753 mmHg 75%
16:00 +31°C° 0 mm 1 mps 753 mmHg 76%
17:00 +30°C° 0 mm 1 mps 753 mmHg 80%
18:00 +29°C° 0 mm 1 mps 754 mmHg 83%
19:00 +28°C° 0 mm 1 mps 754 mmHg 87%
20:00 +27°C° 2.2 mm 1 mps 755 mmHg 89%
21:00 +27°C° 2.2 mm 1 mps 755 mmHg 91%
22:00 +26°C° 2.2 mm 2 mps 756 mmHg 94%
23:00 +26°C° 0.9 mm 2 mps 755 mmHg 94%

Day after tomorrow, 15 July, Wednesday

Time Temperature Precipitation Wind Pressure Humidity
00:00 +26°C° 0.9 mm 2 mps 755 mmHg 94%
01:00 +26°C° 0.9 mm 1 mps 755 mmHg 94%
02:00 +26°C° 0 mm 2 mps 755 mmHg 94%
03:00 +26°C° 0 mm 2 mps 755 mmHg 95%
04:00 +25°C° 0 mm 2 mps 754 mmHg 95%
05:00 +26°C° 0 mm 2 mps 754 mmHg 94%
06:00 +26°C° 0 mm 1 mps 755 mmHg 93%
07:00 +24°C° 0 mm 0 mps 755 mmHg 93%
08:00 +27°C° 0 mm 1 mps 755 mmHg 89%
09:00 +28°C° 0 mm 1 mps 755 mmHg 86%
10:00 +29°C° 0 mm 2 mps 756 mmHg 82%
11:00 +30°C° 0 mm 2 mps 755 mmHg 79%
12:00 +31°C° 0 mm 1 mps 754 mmHg 76%
13:00 +31°C° 0 mm 1 mps 754 mmHg 72%
14:00 +32°C° 0 mm 1 mps 753 mmHg 73%
15:00 +32°C° 0 mm 1 mps 753 mmHg 74%
16:00 +32°C° 0 mm 1 mps 752 mmHg 75%
17:00 +30°C° 0 mm 2 mps 752 mmHg 79%
18:00 +29°C° 0 mm 2 mps 753 mmHg 84%
19:00 +28°C° 0 mm 3 mps 753 mmHg 88%
20:00 +27°C° 0.4 mm 3 mps 754 mmHg 89%
21:00 +27°C° 0.4 mm 2 mps 754 mmHg 89%
22:00 +26°C° 0.4 mm 2 mps 755 mmHg 90%
23:00 +26°C° 0.6 mm 2 mps 755 mmHg 91%

16 July, Thursday

Time Temperature Precipitation Wind Pressure Humidity
00:00 +26°C° 0.6 mm 2 mps 754 mmHg 92%
01:00 +26°C° 0.6 mm 2 mps 754 mmHg 93%
02:00 +26°C° 1.3 mm 2 mps 754 mmHg 94%
03:00 +26°C° 1.3 mm 2 mps 754 mmHg 95%
04:00 +26°C° 1.3 mm 2 mps 754 mmHg 95%
05:00 +26°C° 0.8 mm 2 mps 754 mmHg 95%
06:00 +26°C° 0.8 mm 2 mps 755 mmHg 95%
07:00 +26°C° 0.8 mm 2 mps 755 mmHg 94%
08:00 +27°C° 0 mm 2 mps 755 mmHg 91%
09:00 +29°C° 0 mm 2 mps 755 mmHg 87%
10:00 +30°C° 0 mm 2 mps 756 mmHg 83%
11:00 +30°C° 0 mm 2 mps 755 mmHg 80%
12:00 +31°C° 0 mm 2 mps 755 mmHg 77%
13:00 +31°C° 0 mm 1 mps 754 mmHg 74%
14:00 +32°C° 0.2 mm 2 mps 754 mmHg 76%
15:00 +32°C° 0.2 mm 2 mps 753 mmHg 77%
16:00 +32°C° 0.2 mm 2 mps 753 mmHg 78%
17:00 +30°C° 0.8 mm 2 mps 753 mmHg 82%
18:00 +29°C° 0.8 mm 2 mps 753 mmHg 87%
19:00 +27°C° 0.8 mm 2 mps 754 mmHg 91%
20:00 +27°C° 0.2 mm 2 mps 754 mmHg 91%
21:00 +27°C° 0.2 mm 2 mps 755 mmHg 91%
22:00 +26°C° 0.2 mm 2 mps 755 mmHg 92%
23:00 +26°C° 0 mm 2 mps 755 mmHg 92%

17 July, Friday

Time Temperature Precipitation Wind Pressure Humidity
00:00 +26°C° 0 mm 1 mps 755 mmHg 92%
01:00 +26°C° 0 mm 1 mps 754 mmHg 92%
02:00 +26°C° 0 mm 1 mps 754 mmHg 92%
03:00 +26°C° 0 mm 1 mps 754 mmHg 92%
04:00 +26°C° 0 mm 1 mps 754 mmHg 92%
05:00 +26°C° 0.3 mm 1 mps 755 mmHg 93%
06:00 +26°C° 0.3 mm 2 mps 755 mmHg 94%
07:00 +26°C° 0.3 mm 3 mps 755 mmHg 95%
08:00 +26°C° 0 mm 2 mps 755 mmHg 93%
09:00 +27°C° 0 mm 2 mps 756 mmHg 91%
10:00 +28°C° 0 mm 2 mps 756 mmHg 90%
11:00 +29°C° 0 mm 1 mps 755 mmHg 86%
12:00 +29°C° 0 mm 1 mps 755 mmHg 82%
13:00 +30°C° 0 mm 1 mps 754 mmHg 78%
14:00 +31°C° 0 mm 1 mps 754 mmHg 78%
15:00 +31°C° 0 mm 2 mps 753 mmHg 78%
16:00 +31°C° 0 mm 2 mps 753 mmHg 77%
17:00 +30°C° 0 mm 2 mps 753 mmHg 82%
18:00 +29°C° 0 mm 2 mps 753 mmHg 87%
19:00 +27°C° 0 mm 2 mps 754 mmHg 91%
20:00 +27°C° 0.1 mm 2 mps 754 mmHg 91%
21:00 +27°C° 0.1 mm 1 mps 755 mmHg 92%
22:00 +26°C° 0.1 mm 1 mps 755 mmHg 92%
23:00 +26°C° 0.9 mm 1 mps 755 mmHg 92%

18 July, Saturday

Time Temperature Precipitation Wind Pressure Humidity
00:00 +26°C° 0.9 mm 1 mps 755 mmHg 93%
01:00 +26°C° 0.9 mm 2 mps 755 mmHg 93%
02:00 +26°C° 1.1 mm 1 mps 755 mmHg 94%
03:00 +25°C° 1.1 mm 1 mps 755 mmHg 95%
04:00 +23°C° 1.1 mm 0 mps 755 mmHg 95%
05:00 +25°C° 0 mm 1 mps 755 mmHg 95%
06:00 +26°C° 0 mm 1 mps 755 mmHg 95%
07:00 +26°C° 0 mm 2 mps 755 mmHg 94%
08:00 +27°C° 0 mm 2 mps 755 mmHg 91%
09:00 +28°C° 0 mm 2 mps 755 mmHg 88%
10:00 +29°C° 0 mm 2 mps 755 mmHg 84%
11:00 +29°C° 0 mm 2 mps 754 mmHg 82%
12:00 +30°C° 0 mm 2 mps 754 mmHg 79%
13:00 +31°C° 0 mm 1 mps 753 mmHg 76%
14:00 +31°C° 0 mm 2 mps 753 mmHg 76%
15:00 +31°C° 0 mm 2 mps 753 mmHg 77%
16:00 +31°C° 0 mm 2 mps 752 mmHg 78%
17:00 +30°C° 0 mm 3 mps 752 mmHg 81%
18:00 +29°C° 0 mm 3 mps 753 mmHg 85%
19:00 +27°C° 0 mm 3 mps 753 mmHg 89%
20:00 +27°C° 0.1 mm 3 mps 754 mmHg 89%
21:00 +27°C° 0.1 mm 3 mps 754 mmHg 89%
22:00 +26°C° 0.1 mm 3 mps 755 mmHg 89%
23:00 +26°C° 1.4 mm 2 mps 755 mmHg 91%
Show more